Weather Roundup
Issued by NWS Chicago, IL

Home | Current Version | Previous Version | Text Only | Print | Product List | Glossary On
Versions: 1 2 3 4 5 6 7 8 9 10 11 12 13 14 15 16 17 18 19 20 21 22 23 24 25 26 27 28 29 30 31 32 33 34 35 36 37 38 39 40 41 42 43 44 45 46 47 48 49 50
000
NZUS59 KLOT 030712
HRRLOT

CHICAGO AREA WEATHER ROUNDUP
NATIONAL WEATHER SERVICE CHICAGO/ROMEOVILLE IL
100 AM CST SAT DEC 03 2016

NOTE: "FAIR" INDICATES FEW OR NO CLOUDS BELOW 12,000 FEET WITH NO
SIGNIFICANT WEATHER AND/OR OBSTRUCTIONS TO VISIBILITY.

* THESE STATIONS ARE NOT UNDER NWS QUALITY CONTROL. THEY ALSO MAY NOT
  REPORT WEATHER SUCH AS PRECIPITATION OR FOG.

ILZ005-006-012>014-019>023-030800-
NORTHEAST ILLINOIS

CITY           SKY/WX    TMP DP  RH WIND       PRES   REMARKS
OHARE          CLOUDY    33  24  69 SW3       30.31R
MIDWAY         CLOUDY    35  21  56 VRB5      30.32R WCI  31
AURORA         CLOUDY    33  25  72 N6        30.31F WCI  28
LANSING*       CLOUDY    33  26  74 NW7       30.31F WCI  27
JOLIET*        CLOUDY    35  27  71 N3        30.32F
WAUKEGAN       CLOUDY    33  23  66 W3        30.30S
DUPAGE AIRPORT CLOUDY    33  22  63 NW7       30.31R WCI  27
WHEELING       CLOUDY    33  22  63 NW7       30.32S WCI  27
LEWIS AIRPORT* CLOUDY    33  27  80 N5        30.31F WCI  28
NORTHERLY ISL    N/A     35  23  62 W5          N/A  WCI  31
$$

WIZ051-052-058>065-066-070>072-030800-
SOUTHEAST WISCONSIN

CITY           SKY/WX    TMP DP  RH WIND       PRES   REMARKS
MILWAUKEE      CLOUDY    33  22  63 NW7       30.30F WCI  27
KENOSHA*       CLOUDY    32  23  69 NW5       30.30F WCI  27
RACINE*        CLOUDY    32  22  66 NW3       30.32F
$$

INZ001>003-010>013-019-020-030800-
NORTHWEST INDIANA

CITY           SKY/WX    TMP DP  RH WIND       PRES   REMARKS
GARY*          CLOUDY    36  25  64 W7        30.32S
MICHIGAN CITY* NOT AVBL
RENSSELAER*    NOT AVBL
VALPARAISO     CLOUDY    35  24  64 W9        30.30S WCI  28
$$

LMZ740>746-030800-
SOUTHERN LAKE MICHIGAN

STATION/POSITION TIME  SKY/WX   TEMP WIND        PRES    VSBY
                                AIR  DIR/SP/G
                 (UTC)          (F)  (DEG/KT/KT) (MB)    (MI)
HARRISON CRIB    0640            36  310/  8/  9   N/A
BURNHAM HARBOR   0700            35  230/  4/  9   N/A
CALUMET HARBOR   0642            35  240/  4/  7 1026.0R
BURNS HARBOR     0640            38  260/  9/ 14 1026.8R
MICHIGAN CITY    0640            37  280/ 13/ 15   N/A
$$

ABBREVIATIONS USED IN REMARKS
   TC - TEMPERATURE IN CELSIUS
  WCI - WIND CHILL INDEX
   HX - HEAT INDEX
  VSB - VISIBILITY
$$




USA.gov is the U.S. government's official web portal to all federal, state and local government web resources and services.